Tracking 19636 objects as of 24-May-2019
HD Live streaming from Space Station
objects crossing your sky now

SL-4 R/B


SL-4 R/B is no longer on orbit


NORAD ID: 39178
Int'l Code: 2013-028B
Perigee: N/A
Apogee: N/A
Inclination: N/A
Period: N/A
Semi major axis: N/A
RCS: N/A
Launch date: June 7, 2013
Source: Commonwealth of Independent States (former USSR) (CIS)
Launch site: PLESETSK MISSILE AND SPACE COMPLEX (PKMTR)
Decay date: 2013-07-28

Note: This is a ROCKET BODY
aabbcc
Your satellite tracking list
Your tracking list is empty




NASA's NSSDC Master Catalog

Two Line Element Set (TLE):
1 39178U 13028B   13209.83072879  .31467055  30487-5  12901-3 0  9995
2 39178 098.2629 295.5116 0037000 255.0260 105.3930 16.54984996  8027
Source of the keplerian elements: AFSPC